Tracking 25612 objects as of 19-May-2022
HD Live streaming from Space Station
objects crossing your sky now

SL-14 R/B

Track SL-14 R/B now!
10-day predictions


NORAD ID: 16612
Int'l Code: 1986-018B
Perigee: 610.5 km
Apogee: 634.6 km
Inclination: 82.5 °
Period: 97.0 minutes
Semi major axis: 6993 km
RCS: 4.4703 m2 (large)
Launch date: February 19, 1986
Source: Commonwealth of Independent States (former USSR) (CIS)
Launch site: PLESETSK MISSILE AND SPACE COMPLEX (PKMTR)

Note: This is a ROCKET BODY
aabbcc
Your satellite tracking list
Your tracking list is empty




NASA's NSSDC Master Catalog

Two Line Element Set (TLE):
1 16612U 86018B   22139.21220293  .00000639  00000-0  73014-4 0  9994
2 16612  82.5193  50.2178 0017206 346.4323 166.4564 14.84428710858013
Source of the keplerian elements: AFSPC